Location: El Mouella
(16.4949°N, 9.1594°W)
Time: 21:00:44
(UTC+00:00)

COSMOS 2406 - Pass Details

Date: 02 June 2020
Orbit: 843 x 864 km, 71.0° (Epoch: 05 July)

Event Time Altitude Azimuth Distance (km) Brightness Sun altitude
Rises 21:12:50 0° 339° (NNW) 3,431 7.2 -27.2°
Reaches altitude 10° 21:15:18 10° 337° (NNW) 2,491 6.4 -27.6°
Maximum altitude 21:20:59 70° 255° (WSW) 909 3.3 -28.7°
Enters shadow 21:21:19 68° 231° (SW) 918 3.3 -28.8°
